CMB56 KATL-KDHN

Flight info

Callsign CMB56
Flight time 0h 37m
Altitude 24000
Route HAALO3 SARGE RRS
Aircraft A320/M-SDE3FGHIRWY/LB1

Departure

Time 2026-05-08 22:51
Airport Hartsfield Jackson Atlanta International Airport (KATL)

Arrival

Time 2026-05-08 23:28
Airport Dothan Regional Airport (KDHN)
Time Latitude Longitude Altitude Speed Heading
2026-05-08 22:22 33.65145 -84.42668 1007 ft 0 kts 180°
2026-05-08 22:40 33.65154 -84.42668 1006 ft 4 kts 177°
2026-05-08 22:41 33.65180 -84.42673 1007 ft 4 kts 158°
2026-05-08 22:41 33.65200 -84.42689 1007 ft 4 kts 108°
2026-05-08 22:41 33.65202 -84.42699 1007 ft 0 kts 90°
2026-05-08 22:44 33.65202 -84.42686 1007 ft 4 kts 91°
2026-05-08 22:44 33.65200 -84.42646 1007 ft 6 kts 95°
2026-05-08 22:44 33.65198 -84.42626 1007 ft 2 kts 99°
2026-05-08 22:45 33.65190 -84.42606 1007 ft 4 kts 124°
2026-05-08 22:45 33.65158 -84.42590 1007 ft 7 kts 172°
2026-05-08 22:45 33.65137 -84.42590 1007 ft 0 kts 181°
2026-05-08 22:45 33.65134 -84.42590 1007 ft 2 kts 182°
2026-05-08 22:46 33.65102 -84.42589 1007 ft 8 kts 172°
2026-05-08 22:46 33.65065 -84.42510 1007 ft 15 kts 92°
2026-05-08 22:46 33.65064 -84.42373 1007 ft 18 kts 89°
2026-05-08 22:46 33.65064 -84.42213 1007 ft 21 kts 90°
2026-05-08 22:47 33.65064 -84.42029 1007 ft 23 kts 90°
2026-05-08 22:47 33.65064 -84.41848 1007 ft 22 kts 90°
2026-05-08 22:47 33.65063 -84.41665 1006 ft 20 kts 90°
2026-05-08 22:47 33.65097 -84.41499 1006 ft 22 kts 63°
2026-05-08 22:48 33.65119 -84.41312 1006 ft 24 kts 89°
2026-05-08 22:48 33.65119 -84.41140 1006 ft 15 kts 90°
2026-05-08 22:48 33.65119 -84.41041 1006 ft 12 kts 91°
2026-05-08 22:48 33.65062 -84.40963 1007 ft 15 kts 173°
2026-05-08 22:49 33.64946 -84.40964 1006 ft 18 kts 180°
2026-05-08 22:49 33.64845 -84.40740 1006 ft 21 kts 90°
2026-05-08 22:49 33.64817 -84.40582 1006 ft 15 kts 153°
2026-05-08 22:50 33.64710 -84.40568 1004 ft 12 kts 185°
2026-05-08 22:50 33.64679 -84.40662 1004 ft 16 kts 268°
2026-05-08 22:50 33.64677 -84.41000 1007 ft 75 kts 270°
2026-05-08 22:50 33.64677 -84.41894 1007 ft 136 kts 270°
2026-05-08 22:51 33.64675 -84.43210 1150 ft 168 kts 270°
2026-05-08 22:51 33.64665 -84.44589 1939 ft 164 kts 269°
2026-05-08 22:51 33.64740 -84.45972 2628 ft 167 kts 282°
2026-05-08 22:51 33.65014 -84.47354 3138 ft 181 kts 284°
2026-05-08 22:52 33.65338 -84.48904 3514 ft 203 kts 280°
2026-05-08 22:52 33.65654 -84.50656 3879 ft 228 kts 280°
2026-05-08 22:52 33.65995 -84.52621 4378 ft 252 kts 280°
2026-05-08 22:52 33.66366 -84.54727 5193 ft 262 kts 281°
2026-05-08 22:53 33.66604 -84.56889 6233 ft 261 kts 269°
2026-05-08 22:53 33.66386 -84.59034 7279 ft 259 kts 256°
2026-05-08 22:53 33.65718 -84.61048 8278 ft 262 kts 243°
2026-05-08 22:53 33.64813 -84.62925 9255 ft 263 kts 242°
2026-05-08 22:54 33.63844 -84.64790 10177 ft 267 kts 235°
2026-05-08 22:54 33.62514 -84.66363 11006 ft 274 kts 221°
2026-05-08 22:54 33.60874 -84.67569 11812 ft 281 kts 215°
2026-05-08 22:54 33.59142 -84.68686 12631 ft 287 kts 208°
2026-05-08 22:55 33.57169 -84.69327 13444 ft 300 kts 193°
2026-05-08 22:55 33.55027 -84.69286 14160 ft 315 kts 178°
2026-05-08 22:55 33.52842 -84.68870 14850 ft 320 kts 178°
2026-05-08 22:55 33.50660 -84.68451 15523 ft 324 kts 178°
2026-05-08 22:56 33.48421 -84.68022 16202 ft 328 kts 178°
2026-05-08 22:56 33.46183 -84.67592 16881 ft 332 kts 178°
2026-05-08 22:56 33.43888 -84.67155 17559 ft 336 kts 179°
2026-05-08 22:56 33.41564 -84.66718 18199 ft 341 kts 180°
2026-05-08 22:57 33.39147 -84.66279 18352 ft 362 kts 179°
2026-05-08 22:57 33.36584 -84.65820 18474 ft 381 kts 179°
2026-05-08 22:57 33.33926 -84.65333 18870 ft 390 kts 179°
2026-05-08 22:57 33.31227 -84.64828 19464 ft 394 kts 179°
2026-05-08 22:58 33.28517 -84.64316 20123 ft 396 kts 179°
2026-05-08 22:58 33.25790 -84.63800 20796 ft 397 kts 179°
2026-05-08 22:58 33.23090 -84.63294 21449 ft 398 kts 179°
2026-05-08 22:58 33.20348 -84.62784 22091 ft 400 kts 180°
2026-05-08 22:59 33.17589 -84.62274 22714 ft 402 kts 180°
2026-05-08 22:59 33.14822 -84.61760 23338 ft 403 kts 180°
2026-05-08 22:59 33.12046 -84.61246 23828 ft 405 kts 180°
2026-05-08 22:59 33.09268 -84.60733 23986 ft 404 kts 180°
2026-05-08 23:00 33.06477 -84.60222 24034 ft 406 kts 180°
2026-05-08 23:00 33.03685 -84.59711 24018 ft 406 kts 179°
2026-05-08 23:00 33.00929 -84.59203 24040 ft 407 kts 179°
2026-05-08 23:00 32.98132 -84.58782 24040 ft 401 kts 184°
2026-05-08 23:01 32.95361 -84.58696 24041 ft 400 kts 186°
2026-05-08 23:01 32.92570 -84.58630 24040 ft 400 kts 186°
2026-05-08 23:01 32.89793 -84.58567 24039 ft 400 kts 186°
2026-05-08 23:01 32.87010 -84.58507 24037 ft 399 kts 186°
2026-05-08 23:02 32.84233 -84.58446 24039 ft 399 kts 186°
2026-05-08 23:02 32.81465 -84.58380 24039 ft 399 kts 186°
2026-05-08 23:02 32.78717 -84.58313 24035 ft 399 kts 186°
2026-05-08 23:02 32.75938 -84.58249 24014 ft 399 kts 186°
2026-05-08 23:03 32.73160 -84.58188 24015 ft 400 kts 186°
2026-05-08 23:03 32.70377 -84.58128 24013 ft 400 kts 186°
2026-05-08 23:03 32.67595 -84.58067 24016 ft 400 kts 186°
2026-05-08 23:03 32.64817 -84.58002 24014 ft 400 kts 186°
2026-05-08 23:04 32.62027 -84.57939 24016 ft 400 kts 186°
2026-05-08 23:04 32.59241 -84.57878 24013 ft 400 kts 186°
2026-05-08 23:04 32.56456 -84.57815 24019 ft 401 kts 186°
2026-05-08 23:04 32.53667 -84.57753 24016 ft 401 kts 186°
2026-05-08 23:05 32.50919 -84.57692 24017 ft 401 kts 186°
2026-05-08 23:05 32.48131 -84.57626 24000 ft 400 kts 186°
2026-05-08 23:05 32.45348 -84.57559 24012 ft 400 kts 186°
2026-05-08 23:05 32.42575 -84.57496 24020 ft 399 kts 186°
2026-05-08 23:06 32.39801 -84.57439 24025 ft 399 kts 186°
2026-05-08 23:06 32.37029 -84.57380 24023 ft 398 kts 186°
2026-05-08 23:06 32.34255 -84.57330 24022 ft 397 kts 188°
2026-05-08 23:06 32.31547 -84.57648 24027 ft 387 kts 198°
2026-05-08 23:07 32.29029 -84.58528 24022 ft 379 kts 208°
2026-05-08 23:07 32.26703 -84.59924 24026 ft 372 kts 217°
2026-05-08 23:07 32.24600 -84.61685 24024 ft 370 kts 220°
2026-05-08 23:07 32.22518 -84.63478 24008 ft 370 kts 220°
2026-05-08 23:08 32.20435 -84.65268 24000 ft 371 kts 220°
2026-05-08 23:08 32.18347 -84.67054 24008 ft 371 kts 220°
2026-05-08 23:08 32.16257 -84.68840 24008 ft 371 kts 220°
2026-05-08 23:08 32.14165 -84.70626 24011 ft 371 kts 220°
2026-05-08 23:09 32.12074 -84.72414 24008 ft 371 kts 220°
2026-05-08 23:09 32.10090 -84.74112 24009 ft 371 kts 220°
2026-05-08 23:09 32.07995 -84.75907 24019 ft 372 kts 220°
2026-05-08 23:09 32.05903 -84.77696 24027 ft 372 kts 220°
2026-05-08 23:10 32.03748 -84.79532 24023 ft 372 kts 220°
2026-05-08 23:10 32.01651 -84.81315 24029 ft 372 kts 220°
2026-05-08 23:10 31.99553 -84.83101 24030 ft 372 kts 220°
2026-05-08 23:10 31.97463 -84.84885 24041 ft 371 kts 220°
2026-05-08 23:11 31.95372 -84.86671 24023 ft 371 kts 220°
2026-05-08 23:11 31.93281 -84.88453 23829 ft 371 kts 220°
2026-05-08 23:11 31.91177 -84.90245 23010 ft 375 kts 220°
2026-05-08 23:11 31.89088 -84.92023 22323 ft 375 kts 219°
2026-05-08 23:12 31.87052 -84.93751 21728 ft 373 kts 219°
2026-05-08 23:12 31.85014 -84.95478 21192 ft 371 kts 219°
2026-05-08 23:12 31.82924 -84.97250 20659 ft 369 kts 219°
2026-05-08 23:12 31.80845 -84.99012 20141 ft 367 kts 219°
2026-05-08 23:13 31.78772 -85.00769 19625 ft 365 kts 219°
2026-05-08 23:13 31.76715 -85.02509 19103 ft 363 kts 219°
2026-05-08 23:13 31.74670 -85.04235 18568 ft 362 kts 219°
2026-05-08 23:13 31.72619 -85.05965 17902 ft 363 kts 219°
2026-05-08 23:14 31.70583 -85.07688 17388 ft 358 kts 219°
2026-05-08 23:14 31.68610 -85.09357 17024 ft 349 kts 220°
2026-05-08 23:14 31.66670 -85.10996 16585 ft 341 kts 220°
2026-05-08 23:14 31.64751 -85.12617 15953 ft 340 kts 220°
2026-05-08 23:15 31.62842 -85.14230 15445 ft 335 kts 219°
2026-05-08 23:15 31.60958 -85.15817 14923 ft 332 kts 219°
2026-05-08 23:15 31.59084 -85.17393 14392 ft 329 kts 219°
2026-05-08 23:15 31.57238 -85.18947 13919 ft 325 kts 219°
2026-05-08 23:16 31.55409 -85.20488 13416 ft 322 kts 219°
2026-05-08 23:16 31.53599 -85.22014 12942 ft 318 kts 219°
2026-05-08 23:16 31.51811 -85.23519 12484 ft 315 kts 219°
2026-05-08 23:16 31.50059 -85.24992 12034 ft 312 kts 219°
2026-05-08 23:17 31.48311 -85.26461 11588 ft 308 kts 219°
2026-05-08 23:17 31.46577 -85.27920 11143 ft 304 kts 219°
2026-05-08 23:17 31.44881 -85.29348 10704 ft 301 kts 219°
2026-05-08 23:17 31.43189 -85.30771 10300 ft 298 kts 218°
2026-05-08 23:18 31.41534 -85.32158 10238 ft 286 kts 217°
2026-05-08 23:18 31.39951 -85.33484 10096 ft 276 kts 218°
2026-05-08 23:18 31.38405 -85.34780 9968 ft 269 kts 218°
2026-05-08 23:18 31.36876 -85.36063 9785 ft 272 kts 218°
2026-05-08 23:19 31.35336 -85.37357 9294 ft 276 kts 217°
2026-05-08 23:19 31.33797 -85.38647 8812 ft 271 kts 217°
2026-05-08 23:19 31.32266 -85.39929 8174 ft 270 kts 217°
2026-05-08 23:19 31.30672 -85.41098 7549 ft 271 kts 204°
2026-05-08 23:20 31.28809 -85.41441 6998 ft 279 kts 177°
2026-05-08 23:20 31.26966 -85.40720 6651 ft 284 kts 149°
2026-05-08 23:20 31.25526 -85.39119 6262 ft 288 kts 133°
2026-05-08 23:20 31.24208 -85.37316 5484 ft 294 kts 132°
2026-05-08 23:21 31.22897 -85.35495 4941 ft 287 kts 131°
2026-05-08 23:21 31.21673 -85.33791 4749 ft 269 kts 131°
2026-05-08 23:21 31.20516 -85.32180 4609 ft 249 kts 131°
2026-05-08 23:21 31.19443 -85.30691 4436 ft 230 kts 131°
2026-05-08 23:22 31.18556 -85.29248 4340 ft 222 kts 124°
2026-05-08 23:22 31.17441 -85.28053 4236 ft 208 kts 164°
2026-05-08 23:22 31.16048 -85.28061 3939 ft 205 kts 207°
2026-05-08 23:22 31.15081 -85.29228 3581 ft 205 kts 249°
2026-05-08 23:23 31.15103 -85.30807 3186 ft 203 kts 295°
2026-05-08 23:23 31.16106 -85.31899 2837 ft 198 kts 341°
2026-05-08 23:23 31.17479 -85.31976 2451 ft 201 kts
2026-05-08 23:23 31.18860 -85.31860 2275 ft 194 kts
2026-05-08 23:24 31.20183 -85.31988 2279 ft 189 kts 343°
2026-05-08 23:24 31.21329 -85.32599 2279 ft 170 kts 323°
2026-05-08 23:24 31.22147 -85.33454 2277 ft 150 kts 314°
2026-05-08 23:24 31.22866 -85.34288 2289 ft 144 kts 313°
2026-05-08 23:25 31.23570 -85.35106 2300 ft 142 kts 313°
2026-05-08 23:25 31.24267 -85.35916 2290 ft 143 kts 313°
2026-05-08 23:25 31.24970 -85.36735 2190 ft 143 kts 314°
2026-05-08 23:25 31.25676 -85.37556 2035 ft 143 kts 314°
2026-05-08 23:26 31.26379 -85.38375 1859 ft 143 kts 314°
2026-05-08 23:26 31.27080 -85.39191 1679 ft 142 kts 314°
2026-05-08 23:26 31.27783 -85.40010 1486 ft 142 kts 315°
2026-05-08 23:26 31.28480 -85.40823 1290 ft 141 kts 315°
2026-05-08 23:27 31.29171 -85.41628 1093 ft 139 kts 315°
2026-05-08 23:27 31.29855 -85.42426 895 ft 137 kts 315°
2026-05-08 23:27 31.30522 -85.43202 698 ft 137 kts 315°
2026-05-08 23:27 31.31191 -85.43983 515 ft 135 kts 315°
2026-05-08 23:28 31.31844 -85.44746 391 ft 123 kts 315°
2026-05-08 23:28 31.32265 -85.45238 395 ft 43 kts 315°
2026-05-08 23:28 31.32404 -85.45400 395 ft 27 kts 317°
2026-05-08 23:28 31.32535 -85.45547 394 ft 20 kts 311°
2026-05-08 23:29 31.32503 -85.45657 398 ft 15 kts 197°
2026-05-08 23:29 31.32409 -85.45601 398 ft 17 kts 138°
2026-05-08 23:29 31.32309 -85.45496 396 ft 21 kts 138°
2026-05-08 23:29 31.32190 -85.45373 396 ft 25 kts 139°
2026-05-08 23:30 31.32052 -85.45231 393 ft 28 kts 138°
2026-05-08 23:30 31.31905 -85.45059 393 ft 32 kts 135°
2026-05-08 23:30 31.31742 -85.44869 391 ft 33 kts 135°
2026-05-08 23:30 31.31621 -85.44727 390 ft 19 kts 134°
2026-05-08 23:31 31.31499 -85.44702 389 ft 16 kts 181°
2026-05-08 23:31 31.31507 -85.44746 389 ft 10 kts
2026-05-08 23:31 31.31512 -85.44745 389 ft 0 kts